Regional Weather Roundup
Issued by NWS

Home | Current Version | Previous Version | Graphics & Text | Print | Product List | Glossary On
Versions: 1 2 3 4 5 6 7 8 9 10 11 12 13 14 15 16 17 18 19 20 21 22 23 24 25 26 27 28 29 30 31 32 33 34 35 36 37 38 39 40 41 42 43 44 45 46 47 48 49 50
000
ASUS43 KDTX 040701
RWRMI
MICHIGAN HOURLY REGIONAL WEATHER ROUNDUP
NATIONAL WEATHER SERVICE DETROIT/PONTIAC MI
300 AM EDT SAT JUL 04 2015

NOTE: "FAIR" INDICATES FEW OR NO CLOUDS BELOW 12,000 FEET WITH NO
SIGNIFICANT WEATHER AND/OR OBSTRUCTION TO VISIBILITY.

MIZ047>049-052>055-059>063-066>070-074>076-081>083-040800-
SOUTHEAST LOWER MICHIGAN

CITY           SKY/WX    TMP DP  RH WIND       PRES   REMARKS
ADRIAN         CLEAR     55  53  93 CALM      29.95S
ALMA           CLEAR     53  52  95 CALM      29.94F
ANN ARBOR      FOG       48  47  96 CALM      29.94S VSB 1/4
BAD AXE        CLEAR     51  48  92 CALM      29.94S
CARO           CLEAR     49  48  99 CALM      29.93F
DETROIT CITY   CLEAR     61  53  75 CALM      29.93F
DETROIT        CLEAR     59  54  83 CALM      29.94S
FLINT          CLEAR     53  49  86 CALM      29.94S
GROSSE ILE     CLEAR     57  55  94 W3        29.93S
HILLSDALE      CLEAR     56  56 100 CALM      29.95F FOG
HOWELL         CLEAR     54  52  94 CALM      29.95S

CITY           SKY/WX    TMP DP  RH WIND       PRES   REMARKS
JACKSON        CLEAR     53  51  93 CALM      29.95S
LAMBERTVILLE   CLEAR     56  53  89 CALM      29.94S FOG
LANSING        CLEAR     56  51  84 CALM      29.95S
LAPEER         FOG       48  47  95 CALM      29.94F VSB 1/2
MASON          CLEAR     52  51  97 CALM      29.95S
MONROE         CLEAR     55  54  96 CALM      29.93S
MT. CLEMENS    CLEAR     58  54  86 CALM      29.91S
PONTIAC        CLEAR     55  53  93 CALM      29.93F FOG
PORT HOPE        N/A     59  50  72 SW6       29.92R
PORT HURON       N/A     52  52 100 CALM      29.93F FOG
TRI CITIES     CLEAR     57  50  77 W6        29.95S
MIDLAND        MOCLDY    52  50  92 CALM      29.93F
TROY           CLEAR     60  54  79 CALM      29.95S
SAGINAW HB     CLEAR     52  48  87 CALM      29.93S
$$
MIZ043>046-050>051-056>058-064>065-071>073-077>080-040800-
SOUTHWEST LOWER MICHIGAN

CITY           SKY/WX    TMP DP  RH WIND       PRES   REMARKS
BATTLE CREEK   CLEAR     59  54  83 CALM      29.95F
BENTON HARBOR  CLEAR     52  50  93 CALM      29.95S FOG
BIG RAPIDS     CLEAR     52  49  89 CALM      29.94S
COLDWATER      CLEAR     55  54  99 CALM      29.96S FOG
FREMONT        FAIR      52  51  97 CALM      29.94S
HOLLAND        CLEAR     55  52  89 CALM      29.95S
GRAND RAPIDS   CLEAR     55  51  86 CALM      29.95S
IONIA          FAIR      57  53  86 CALM      29.94S
KALAMAZOO      CLEAR     57  53  86 CALM      29.95F
LUDINGTON      CLOUDY    56  53  89 CALM      29.93S
MARSHALL       CLEAR     54  53  96 CALM      29.95S FOG
MOUNT PLEASANT PTCLDY    54  52  92 CALM      29.93S
MUSKEGON       CLEAR     54  51  90 CALM      29.94F
SOUTH HAVEN    CLEAR     53  51  94 CALM      29.95S FOG
$$
MIZ016>042-040800-
NORTHERN LOWER MICHIGAN

CITY           SKY/WX    TMP DP  RH WIND       PRES   REMARKS
ALPENA         CLOUDY    62  53  72 CALM      29.91S
BEAVER ISLAND  CLEAR     56  49  76 SW6       29.90S
BELLAIRE       CLOUDY    59  55  87 CALM      29.91S
CADILLAC       PTCLDY    51  49  93 CALM      29.93F
CHARLEVOIX     MOCLDY    64  49  60 CALM      29.93S
FRANKFORT      MOCLDY    65  47  50 CALM      29.91F
GAYLORD        CLOUDY    61  51  70 SW5       29.92F
GRAYLING       MOCLDY    54  52  94 CALM      29.93F
HARBOR SPRINGS PTCLDY    58  52  80 CALM      29.90S
HOUGHTON LAKE  CLOUDY    58  54  86 CALM      29.94S
MANISTEE       PTCLDY   N/A N/A N/A CALM      29.93S
OSCODA         MOCLDY    58  55  88 CALM      29.91F
PELLSTON       CLEAR     56  53  90 NE3       29.90S
ROGERS CITY    CLOUDY    61  56  83 S3        29.91S
TRAVERSE CITY  CLOUDY    64  48  56 S3        29.89F
$$
MIZ007>008-015-040800-
EASTERN UPPER MICHIGAN

CITY           SKY/WX    TMP DP  RH WIND       PRES   REMARKS
KINROSS        CLEAR     55  50  82 W3        29.89S
MACKINAC ISLAN CLEAR     58  51  77 W7        29.89S
NEWBERRY       CLEAR     49  49  99 CALM      29.89S
S. S. MARIE    CLEAR     54  51  90 CALM      29.88S
MUNISING         N/A     54  52  93 NE8       29.89R
$$
MIZ004>006-011>014-085-040800-
CENTRAL UPPER MICHIGAN

CITY           SKY/WX    TMP DP  RH WIND       PRES   REMARKS
MANISTIQUE     CLEAR     52  51  96 CALM      29.88S
ESCANABA       CLEAR     55  55 100 CALM      29.88S
MENOMINEE      CLOUDY    63  55  77 NW5       29.89R
SAWYER-GWINN   CLEAR     54  52  94 N5        29.91S FOG
$$
MIZ001>003-009>011-084-040800-
WESTERN UPPER MICHIGAN

CITY           SKY/WX    TMP DP  RH WIND       PRES   REMARKS
IRON MOUNTAIN  MOCLDY    60  57  89 CALM      29.90S
HOUGHTON       CLEAR     60  53  77 NE8       29.91S
COPPER HARBOR    N/A     57  54  89 W3        29.91R
IRONWOOD         N/A     55  55 100 CALM      29.90S VSB 3/4
$$

ABBREVIATIONS USED IN REMARKS
   TC - TEMPERATURE IN CELSIUS
  WCI - WIND CHILL INDEX
   HX - HEAT INDEX
  VSB - VISIBILITY




USA.gov is the U.S. government's official web portal to all federal, state and local government web resources and services.